Tracking 26922 objects as of 31-Jan-2023
HD Live streaming from Space Station
objects crossing your sky now

CZ-6A DEB

Track CZ-6A DEB now!
10-day predictions


NORAD ID: 54341
Int'l Code: 2022-151CL
Perigee: 803.4 km
Apogee: 875.0 km
Inclination: 98.8 °
Period: 101.6 minutes
Semi major axis: 7210 km
RCS: Unknown
Launch date: November 11, 2022
Source: People's Republic of China (PRC)
Launch site: Taiyaun Space Center, China (TSC)

Note: This is SATELLITE DEBRIS
Your satellite tracking list
Your tracking list is empty




NASA's NSSDC Master Catalog

Two Line Element Set (TLE):
1 54341U 22151CL  23031.51857800  .00001632  00000-0  80855-3 0  9992
2 54341  98.8055  40.8670 0049657 291.3466  68.2413 14.18020337 10858
Source of the keplerian elements: AFSPC